Location: Korczew
(51.3586°N, 19.4491°E)
Time: 21:41:43
(UTC+00:00)

Cosmos 44 - Pass Details

Date: 19 May 2025
Orbit: 588 x 763 km, 65.1° (Epoch: 16 June)

Event Time Altitude Azimuth Distance (km) Brightness Sun altitude
Rises 19:35:52 0° 318° (NW) 2,890 9.1 -8.2°
Reaches altitude 10° 19:38:05 10° 318° (NW) 2,002 7.4 -8.5°
Maximum altitude 19:42:37 88° 230° (SW) 652 3.2 -8.9°
Enters shadow 19:46:58 12° 141° (SE) 1,936 4.9 -9.4°
